Regional Weather Roundup
Issued by NWS

Home | Current Version | Previous Version | Graphics & Text | Print | Product List | Glossary On
Versions: 1 2 3 4 5 6 7 8 9 10 11 12 13 14 15 16 17 18 19 20 21 22 23 24 25 26 27 28 29 30 31 32 33 34 35 36 37 38 39 40 41 42 43 44 45 46 47 48 49 50
000
ASUS43 KFSD 260502
RWRSD

WEATHER ROUNDUP FOR SOUTH DAKOTA
NATIONAL WEATHER SERVICE SIOUX FALLS SD
1200 AM CDT MON JUN 26 2017

NOTE: "FAIR" INDICATES FEW OR NO CLOUDS BELOW 12,000 FEET WITH NO
SIGNIFICANT WEATHER AND/OR OBSTRUCTIONS TO VISIBILITY.


SDZ001>005-009-010-012>017-260600-
NORTHWEST AND NORTH CENTRAL SOUTH DAKOTA

CITY           SKY/WX    TMP DP  RH WIND       PRES   REMARKS
BUFFALO          N/A     57  40  52 E13       30.19S
FAITH            N/A     53  41  63 E9        30.24R
MOBRIDGE       CLEAR     57  43  59 E10       30.21R
$$

SDZ012>016-024>037-041>051-057-063-072>074-260600-
SOUTHWEST AND SOUTH CENTRAL SOUTH DAKOTA

CITY           SKY/WX    TMP DP  RH WIND       PRES   REMARKS
RAPID CTY ARPT CLEAR     59  38  45 E9        30.24R
PIERRE         PTCLDY    55  45  68 E7        30.20R
CUSTER         CLEAR     56  25  30 NE6       30.32S
ELLSWORTH AFB  CLEAR     62  38  41 E6        30.25R
PHILIP         CLEAR     55  42  61 NE8       30.21R
PINE RIDGE     CLEAR     53  46  77 NE3       30.21S
SPEARFISH      FAIR      50  37  62 SE8       30.29S
WINNER         FAIR      59  42  53 NE5       30.17R
$$

SDZ004>011-016>023-039-040-260600-
NORTHEAST SOUTH DAKOTA

CITY           SKY/WX    TMP DP  RH WIND       PRES   REMARKS
ABERDEEN       CLEAR     48  45  89 NW3       30.22S
WATERTOWN      CLEAR     50  46  86 CALM      30.20S
BROOKINGS      PTCLDY    53  49  86 W3        30.22R
SISSETON         N/A     52  46  80 NW9       30.19R
$$

SDZ017-020-022-023-036>040-048>070-260600-
SOUTHEAST SOUTH DAKOTA

CITY           SKY/WX    TMP DP  RH WIND       PRES   REMARKS
SIOUX FALLS    CLOUDY    54  52  93 NE3       30.20F
HURON          CLOUDY    57  51  80 E3        30.21R
CHAMBERLAIN    CLOUDY    63  49  59 NE9       30.19R
MITCHELL       LGT RAIN  59  52  77 SE9       30.20R
$$

ABBREVIATIONS USED IN REMARKS
   TC - TEMPERATURE IN CELSIUS
  WCI - WIND CHILL INDEX
   HX - HEAT INDEX
  VSB - VISIBILITY





USA.gov is the U.S. government's official web portal to all federal, state and local government web resources and services.